星链-2448 (STARLINK-2448 )

导读 | 豆包AI

STARLINK-2448是美国SpaceX公司星链星座的一颗低轨互联网卫星,于2021年4月7日由猎鹰9号运载火箭发射升空,运行在近地轨道。作为星链项目的组成部分,它承担全球卫星互联网服务,可为偏远地区提供高速低延迟网络接入。星链计划总计将部署数万颗卫星,该卫星是星座组网的重要一环,不过大规模低轨卫星部署也引发太空安全与天文观测等领域争议。

基本信息
目录编号:
48111
目录名称:
STARLINK-2448
国际标识:
2021-027V
轨道中心:
EARTH
卫星名称:
星链-2448
卫星全名:
星链-2448 (STARLINK-2448 )
卫星状态:
在轨 (已飞行1802 天)
发射日期:
2021-04-07 UTC
国别 :
美国 (US)
星等 :
--
轨道信息
数据来源 国际轨道数据
星历时间: 2026-03-13T22:22:25+0800
1天前
查看轨道信息
半长轴: 6850.025km
偏心率: 0.0001958
轨道倾角: 53.159°
近地点辐角 71.981°
升交点赤经 136.753°
平近点角 288.140°
近地点: 470.546km
远地点: 473.23km
周期: 94.037分钟
每日圈数: 15.313153
详细信息
固有亮度:
5
最大亮度:
2.5
卫星平台:
Starlink V1.0
覆盖范围:
全球
运营商:
太空探索技术公司
运营商所在国:
美国
制造商(研发单位):
太空探索技术公司
制造商所在国:
美国
使用方式:
暂无
卫星简介
星链(Starlink)计划是由太空探索技术公司(SpaceX)提出的一个巨型低轨卫星互联网星座项目,计划在2019年至2024年间在太空搭建由约1.2万颗卫星组成的“星链”网络,其中1584颗将部署在地球上空550千米处的近地轨道,并从2020年开始工作。该卫星仍在工作。
2D轨道图
3D轨道图
轨道高度分析图
轨道倾角分析图
轨道综合分析图
查看轨道综合分析图